FW9097 Weather Reports


time (UTC)temp
F
wind
direction
speed
knots
gust
knots
rain 1hr
in
rain 24hr
in
rain mn
in
humidity
%
barometer
mb
20260507051544 53 248 0.0 2.6 0.00 0.00 0.00 80 1021.7
20260507050047 54 271 0.9 2.6 0.00 0.00 0.00 80 1021.8
20260507044549 54 277 0.9 4.3 0.00 0.00 0.00 80 1021.6
20260507043042 54 269 0.0 2.6 0.00 0.00 0.00 81 1021.7
20260507041549 54 236 0.9 5.2 0.00 0.00 0.00 81 1021.7
20260507040051 54 237 0.9 4.3 0.00 0.00 0.00 81 1021.5
20260507034547 54 273 1.7 5.2 0.00 0.00 0.00 80 1021.5
20260507033051 54 250 1.7 7.8 0.00 0.00 0.00 80 1021.5
20260507031554 55 235 0.0 7.8 0.00 0.00 0.00 81 1021.5
20260507030049 55 5 0.9 6.1 0.00 0.00 0.00 80 1021.3
20260507024601 55 299 1.7 8.7 0.00 0.00 0.00 79 1021.1
20260507023047 55 252 0.9 7.0 0.00 0.00 0.00 80 1021.1
20260507021547 55 181 0.9 5.2 0.00 0.00 0.00 80 1021.1
20260507020045 56 61 0.9 8.7 0.00 0.00 0.00 80 1021.1
20260507014601 56 308 1.7 7.8 0.00 0.00 0.00 79 1021.2
20260507013050 56 257 1.7 5.2 0.00 0.00 0.00 78 1021.0
20260507011547 57 269 0.9 3.5 0.00 0.00 0.00 78 1021.3
20260507010051 57 219 0.9 5.2 0.00 0.00 0.00 77 1021.1
20260507004546 57 271 0.9 6.1 0.00 0.00 0.00 78 1021.2
20260507003044 58 236 1.7 7.0 0.00 0.00 0.00 77 1021.1
20260507001552 58 221 1.7 8.7 0.00 0.00 0.00 77 1021.0
20260507000051 57 275 2.6 7.0 0.00 0.00 0.00 78 1021.1
20260506234548 57 254 3.5 11.3 0.00 0.00 0.00 79 1021.3
20260506233055 57 27 2.6 8.7 0.00 0.00 0.00 80 1021.4
20260506231548 57 186 1.7 5.2 0.00 0.00 0.00 80 1021.4
20260506230042 57 214 1.7 7.0 0.00 0.00 0.00 80 1021.4
20260506224549 57 194 0.9 4.3 0.00 0.00 0.00 79 1021.4
20260506223047 57 208 1.7 7.0 0.00 0.00 0.00 78 1021.4
20260506221546 57 222 1.7 7.0 0.00 0.00 0.00 79 1021.5
20260506220049 57 267 1.7 5.2 0.00 0.00 0.00 79 1021.5
20260506214555 57 0 1.7 7.8 0.00 0.00 0.00 78 1021.5
20260506213044 57 223 3.5 7.8 0.00 0.00 0.00 77 1021.4
20260506211541 57 333 0.9 4.3 0.00 0.00 0.00 79 1021.6
20260506210048 57 244 0.9 7.0 0.00 0.00 0.00 79 1021.5
20260506204552 56 330 0.9 5.2 0.00 0.00 0.00 80 1021.5
20260506203046 56 246 2.6 8.7 0.00 0.00 0.00 79 1021.5
20260506201546 56 294 0.0 6.1 0.00 0.00 0.00 80 1021.3
20260506194551 56 281 1.7 7.0 0.00 0.00 0.00 80 1021.3
20260506193053 55 242 1.7 6.1 0.00 0.00 0.00 80 1021.2
20260506191557 55 136 1.7 7.8 0.00 0.00 0.00 80 1021.3
20260506190046 55 188 0.9 7.0 0.00 0.00 0.00 80 1021.1
20260506184551 55 235 1.7 5.2 0.00 0.00 0.00 79 1021.1
20260506183053 56 348 0.9 3.5 0.00 0.00 0.00 80 1021.1
20260506181558 57 246 0.9 7.0 0.00 0.00 0.00 78 1021.0
20260506180110 57 217 0.9 6.1 0.00 0.00 0.00 77 1020.9
20260506174546 56 0 0.9 7.0 0.00 0.00 0.00 79 1020.8
20260506173106 56 219 1.7 8.7 0.00 0.00 0.00 79 1020.7
20260506171545 55 306 3.5 8.7 0.00 0.00 0.00 80 1020.7
20260506170053 55 190 1.7 6.1 0.00 0.00 0.00 80 1020.8
20260506164549 55 238 1.7 6.1 0.00 0.00 0.00 81 1020.7
20260506163053 55 232 0.9 7.0 0.00 0.00 0.00 83 1020.9
20260506161554 55 208 0.9 4.3 0.00 0.00 0.00 85 1020.6
20260506160049 54 0 0.0 3.5 0.00 0.00 0.00 84 1020.4
20260506154551 54 0 0.9 5.2 0.00 0.00 0.00 85 1020.4
20260506153049 53 0 0.9 4.3 0.00 0.00 0.00 86 1020.4
20260506151549 53 203 0.9 3.5 0.00 0.00 0.00 87 1020.5
20260506150056 53 0 0.0 3.5 0.00 0.00 0.00 87 1020.5
20260506144602 52 209 0.0 2.6 0.00 0.00 0.00 87 1020.3
20260506143050 52 241 0.9 3.5 0.00 0.00 0.00 87 1020.3
20260506141543 52 246 0.9 2.6 0.00 0.00 0.00 88 1020.2
20260506140051 52 221 0.0 1.7 0.00 0.00 0.00 88 1020.1
20260506134548 52 0 0.0 2.6 0.00 0.00 0.00 88 1019.8
20260506133051 52 0 0.0 2.6 0.00 0.00 0.00 88 1019.9
20260506131549 52 0 0.0 1.7 0.00 0.00 0.00 88 1020.0
20260506130051 51 271 0.0 2.6 0.00 0.00 0.00 88 1019.9
20260506124549 51 240 0.9 4.3 0.00 0.00 0.00 88 1019.7
20260506123051 52 0 0.0 3.5 0.00 0.00 0.00 88 1019.5
20260506121549 52 0 0.0 2.6 0.00 0.00 0.00 88 1019.6
20260506120048 52 0 0.0 2.6 0.00 0.00 0.00 88 1019.5
20260506114548 52 0 0.0 2.6 0.00 0.00 0.00 88 1019.3
20260506113047 52 0 0.0 2.6 0.00 0.00 0.00 88 1019.3
20260506111543 52 0 0.0 3.5 0.00 0.00 0.00 88 1019.2
20260506110051 52 0 0.0 2.6 0.00 0.00 0.00 88 1019.1
20260506104554 52 246 0.9 1.7 0.00 0.00 0.00 88 1019.0
20260506103049 52 198 0.9 3.5 0.00 0.00 0.00 88 1018.9
20260506101548 52 0 0.0 3.5 0.00 0.00 0.00 88 1018.8
20260506100358 52 186 0.0 4.3 0.00 0.00 0.00 88 1018.6
20260506094546 52 0 0.0 3.5 0.00 0.00 0.00 89 1018.6
20260506093047 52 0 0.0 1.7 0.00 0.00 0.00 89 1018.5
20260506091548 52 220 0.0 0.0 0.00 0.00 0.00 89 1018.5
20260506090048 51 0 0.0 0.0 0.00 0.00 0.00 90 1018.4
20260506084555 51 0 0.0 1.7 0.00 0.00 0.00 90 1018.5
20260506083056 51 0 0.0 0.0 0.00 0.00 0.00 90 1018.1
20260506081546 50 0 0.0 0.0 0.00 0.00 0.00 91 1017.9
20260506080105 50 0 0.0 0.0 0.00 0.00 0.00 90 1017.8
20260506073100 50 0 0.0 0.0 0.00 0.00 0.00 89 1017.6
20260506071549 50 0 0.0 0.0 0.00 0.00 0.00 89 1017.5
20260506061548 52 0 0.0 0.9 0.00 0.00 0.00 88 1017.1